S-NET B

Last updated on Thu Sep 10 2026 00:03:15 GMT+0000 (Coordinated Universal Time)

1 43187U 18014H 26252.50877397 .00003619 00000+0 18479-3 0 9990 2 43187 97.5268 156.7571 0010525 82.7353 277.5076 15.17305605471543
UTC large
Height (km)
Speed (km/s)
/
Latitude / Longitude
Inclination (degrees)
Orbital Period (minutes)
Azimuth
Elevation
Range (km)
Doppler Factor

Next 0 passes for location: London (51.5072 / 0.1276)

No passes found over London.
S-NET B